Time,TemperatureF,DewpointF,PressureIn,WindDirection,WindDirectionDegrees,WindSpeedMPH,WindSpeedGustMPH,Humidity,HourlyPrecipIn,Conditions,Clouds,dailyrainin,SolarRadiationWatts/m^2,SoftwareType,DateUTC
2013-09-01 00:11:00,72.6,70.0,29.71,SSE,165,0.0,0.0,92,0.00,,,0.00,0,weatherlink.com 1.10,2013-09-01 04:11:00,
2013-09-01 00:26:00,72.4,70.0,29.71,SSE,165,0.0,1.0,93,0.00,,,0.00,0,weatherlink.com 1.10,2013-09-01 04:26:00,
2013-09-01 00:41:00,72.2,70.0,29.71,SSE,165,0.0,1.0,93,0.00,,,0.00,0,weatherlink.com 1.10,2013-09-01 04:41:00,
2013-09-01 00:56:00,71.7,70.0,29.71,SSE,165,0.0,1.0,94,0.00,,,0.00,0,weatherlink.com 1.10,2013-09-01 04:56:00,
2013-09-01 01:11:00,71.2,69.0,29.70,SSE,165,0.0,1.0,94,0.00,,,0.00,0,weatherlink.com 1.10,2013-09-01 05:11:00,
2013-09-01 01:26:00,70.8,69.0,29.69,SSE,165,0.0,0.0,95,0.00,,,0.00,0,weatherlink.com 1.10,2013-09-01 05:26:00,
2013-09-01 01:41:00,70.4,69.0,29.69,SSE,165,0.0,0.0,95,0.00,,,0.00,0,weatherlink.com 1.10,2013-09-01 05:41:00,
2013-09-01 01:56:00,70.2,69.0,29.68,SSE,165,0.0,1.0,96,0.00,,,0.00,0,weatherlink.com 1.10,2013-09-01 05:56:00,
2013-09-01 02:11:00,69.9,69.0,29.68,SSE,165,0.0,0.0,96,0.00,,,0.00,0,weatherlink.com 1.10,2013-09-01 06:11:00,
2013-09-01 02:26:00,69.5,68.0,29.68,SSE,165,0.0,0.0,96,0.00,,,0.00,0,weatherlink.com 1.10,2013-09-01 06:26:00,
2013-09-01 02:41:00,69.1,68.0,29.69,SSE,165,0.0,1.0,96,0.00,,,0.00,0,weatherlink.com 1.10,2013-09-01 06:41:00,
2013-09-01 02:56:00,68.8,68.0,29.67,SSE,165,0.0,0.0,96,0.00,,,0.00,0,weatherlink.com 1.10,2013-09-01 06:56:00,
2013-09-01 03:11:00,68.7,68.0,29.66,SSE,165,0.0,1.0,97,0.00,,,0.00,0,weatherlink.com 1.10,2013-09-01 07:11:00,
2013-09-01 03:26:00,68.5,68.0,29.67,SSE,165,0.0,0.0,97,0.00,,,0.00,0,weatherlink.com 1.10,2013-09-01 07:26:00,
2013-09-01 03:41:00,68.3,68.0,29.67,SSE,165,0.0,1.0,97,0.00,,,0.00,0,weatherlink.com 1.10,2013-09-01 07:41:00,
2013-09-01 03:56:00,68.2,67.0,29.67,SSE,165,0.0,1.0,97,0.00,,,0.00,0,weatherlink.com 1.10,2013-09-01 07:56:00,
2013-09-01 04:11:00,67.9,67.0,29.66,SSE,165,0.0,0.0,97,0.00,,,0.00,0,weatherlink.com 1.10,2013-09-01 08:11:00,
2013-09-01 04:26:00,67.7,67.0,29.66,SSE,165,0.0,0.0,97,0.00,,,0.00,0,weatherlink.com 1.10,2013-09-01 08:26:00,
2013-09-01 04:41:00,67.5,67.0,29.68,SSE,165,0.0,0.0,97,0.00,,,0.00,0,weatherlink.com 1.10,2013-09-01 08:41:00,
2013-09-01 04:56:00,67.3,67.0,29.68,SSE,165,0.0,1.0,97,0.00,,,0.00,0,weatherlink.com 1.10,2013-09-01 08:56:00,
2013-09-01 05:11:00,67.4,67.0,29.67,SSE,165,0.0,4.0,98,0.00,,,0.00,0,weatherlink.com 1.10,2013-09-01 09:11:00,
2013-09-01 05:26:00,67.3,67.0,29.67,SSE,165,0.0,1.0,98,0.00,,,0.00,0,weatherlink.com 1.10,2013-09-01 09:26:00,
2013-09-01 05:41:00,67.2,67.0,29.68,SSE,166,0.0,1.0,98,0.00,,,0.00,0,weatherlink.com 1.10,2013-09-01 09:41:00,
2013-09-01 05:56:00,67.2,67.0,29.68,SSE,165,0.0,0.0,98,0.00,,,0.00,0,weatherlink.com 1.10,2013-09-01 09:56:00,
2013-09-01 06:11:00,67.2,67.0,29.67,SSE,165,0.0,1.0,98,0.00,,,0.00,0,weatherlink.com 1.10,2013-09-01 10:11:00,
2013-09-01 06:26:00,67.3,67.0,29.67,SSE,165,0.0,0.0,98,0.00,,,0.00,0,weatherlink.com 1.10,2013-09-01 10:26:00,
2013-09-01 06:41:00,67.2,67.0,29.67,SSE,165,0.0,0.0,98,0.00,,,0.00,0,weatherlink.com 1.10,2013-09-01 10:41:00,
2013-09-01 06:56:00,67.1,67.0,29.67,SSE,165,0.0,0.0,98,0.01,,,0.01,0,weatherlink.com 1.10,2013-09-01 10:56:00,
2013-09-01 07:11:00,66.7,66.0,29.66,SSE,165,0.0,0.0,97,0.01,,,0.01,0,weatherlink.com 1.10,2013-09-01 11:11:00,
2013-09-01 07:26:00,66.6,66.0,29.67,SSE,166,0.0,0.0,98,0.01,,,0.01,12,weatherlink.com 1.10,2013-09-01 11:26:00,
2013-09-01 07:42:00,66.5,66.0,29.68,SSE,165,0.0,1.0,98,0.01,,,0.01,28,weatherlink.com 1.10,2013-09-01 11:42:00,
2013-09-01 07:57:00,66.8,66.0,29.68,SSE,165,0.0,1.0,98,0.00,,,0.01,51,weatherlink.com 1.10,2013-09-01 11:57:00,
2013-09-01 08:12:00,67.1,67.0,29.67,SSE,165,0.0,2.0,98,0.00,,,0.01,81,weatherlink.com 1.10,2013-09-01 12:12:00,
2013-09-01 08:27:00,67.3,67.0,29.68,SSE,165,0.0,4.0,98,0.00,,,0.01,84,weatherlink.com 1.10,2013-09-01 12:27:00,
2013-09-01 08:42:00,67.5,67.0,29.67,SSE,165,0.0,2.0,98,0.00,,,0.01,123,weatherlink.com 1.10,2013-09-01 12:42:00,
2013-09-01 08:57:00,67.7,67.0,29.66,SSE,165,2.0,5.0,98,0.00,,,0.01,139,weatherlink.com 1.10,2013-09-01 12:57:00,
2013-09-01 09:12:00,67.7,67.0,29.67,SSE,165,2.0,4.0,98,0.00,,,0.01,128,weatherlink.com 1.10,2013-09-01 13:12:00,
2013-09-01 09:27:00,67.9,67.0,29.67,SSE,165,0.0,4.0,98,0.00,,,0.01,149,weatherlink.com 1.10,2013-09-01 13:27:00,
2013-09-01 09:42:00,68.0,68.0,29.67,SSE,165,0.0,4.0,98,0.00,,,0.01,174,weatherlink.com 1.10,2013-09-01 13:42:00,
2013-09-01 09:57:00,68.3,68.0,29.68,SSE,165,3.0,5.0,98,0.00,,,0.01,167,weatherlink.com 1.10,2013-09-01 13:57:00,
2013-09-01 10:12:00,68.5,68.0,29.68,SSE,165,1.0,4.0,98,0.00,,,0.01,193,weatherlink.com 1.10,2013-09-01 14:12:00,
2013-09-01 10:27:00,69.0,69.0,29.69,SSE,165,1.0,3.0,98,0.00,,,0.01,220,weatherlink.com 1.10,2013-09-01 14:27:00,
2013-09-01 10:42:00,69.3,69.0,29.68,SSE,165,2.0,4.0,97,0.00,,,0.01,211,weatherlink.com 1.10,2013-09-01 14:42:00,
2013-09-01 10:57:00,69.8,69.0,29.69,SSW,193,4.0,7.0,97,0.00,,,0.01,265,weatherlink.com 1.10,2013-09-01 14:57:00,
2013-09-01 11:12:00,70.3,69.0,29.69,SW,220,1.0,6.0,95,0.00,,,0.01,223,weatherlink.com 1.10,2013-09-01 15:12:00,
2013-09-01 11:27:00,70.9,69.0,29.71,SSW,206,1.0,6.0,94,0.00,,,0.01,232,weatherlink.com 1.10,2013-09-01 15:27:00,
2013-09-01 11:42:00,71.3,69.0,29.70,WSW,241,4.0,8.0,93,0.00,,,0.01,258,weatherlink.com 1.10,2013-09-01 15:42:00,
2013-09-01 11:57:00,71.4,69.0,29.70,SW,235,6.0,8.0,92,0.00,,,0.01,336,weatherlink.com 1.10,2013-09-01 15:57:00,
2013-09-01 12:12:00,71.8,69.0,29.70,WSW,238,3.0,8.0,92,0.00,,,0.01,438,weatherlink.com 1.10,2013-09-01 16:12:00,
2013-09-01 12:27:00,72.7,70.0,29.69,WNW,292,3.0,6.0,90,0.00,,,0.01,318,weatherlink.com 1.10,2013-09-01 16:27:00,
2013-09-01 12:42:00,73.4,70.0,29.69,WNW,288,3.0,4.0,89,0.00,,,0.01,339,weatherlink.com 1.10,2013-09-01 16:42:00,
2013-09-01 12:57:00,74.5,71.0,29.69,West,270,3.0,5.0,87,0.00,,,0.01,385,weatherlink.com 1.10,2013-09-01 16:57:00,
2013-09-01 13:12:00,75.6,71.0,29.68,West,266,3.0,5.0,85,0.00,,,0.01,399,weatherlink.com 1.10,2013-09-01 17:12:00,
2013-09-01 13:27:00,76.5,71.0,29.69,West,277,3.0,5.0,83,0.00,,,0.01,454,weatherlink.com 1.10,2013-09-01 17:27:00,
2013-09-01 13:42:00,77.7,71.0,29.69,WSW,247,5.0,7.0,81,0.00,,,0.01,450,weatherlink.com 1.10,2013-09-01 17:42:00,
2013-09-01 13:57:00,79.1,71.0,29.69,West,274,3.0,6.0,77,0.00,,,0.01,374,weatherlink.com 1.10,2013-09-01 17:57:00,
2013-09-01 14:12:00,79.4,71.0,29.68,West,272,0.0,6.0,76,0.00,,,0.01,323,weatherlink.com 1.10,2013-09-01 18:12:00,
2013-09-01 14:27:00,79.7,72.0,29.68,SW,234,7.0,8.0,77,0.00,,,0.01,786,weatherlink.com 1.10,2013-09-01 18:27:00,
2013-09-01 14:42:00,79.4,72.0,29.68,SW,232,3.0,8.0,77,0.00,,,0.01,816,weatherlink.com 1.10,2013-09-01 18:42:00,
2013-09-01 14:57:00,80.4,71.0,29.68,WSW,255,1.0,8.0,74,0.00,,,0.01,765,weatherlink.com 1.10,2013-09-01 18:57:00,
2013-09-01 15:12:00,81.0,72.0,29.67,WSW,250,5.0,8.0,74,0.00,,,0.01,868,weatherlink.com 1.10,2013-09-01 19:12:00,
2013-09-01 15:28:00,80.9,72.0,29.66,SW,232,5.0,7.0,74,0.00,,,0.01,232,weatherlink.com 1.10,2013-09-01 19:28:00,
2013-09-01 15:43:00,80.9,73.0,29.67,SW,221,8.0,9.0,76,0.00,,,0.01,826,weatherlink.com 1.10,2013-09-01 19:43:00,
2013-09-01 15:59:00,80.8,72.0,29.66,South,178,1.0,7.0,75,0.00,,,0.01,387,weatherlink.com 1.10,2013-09-01 19:59:00,
2013-09-01 16:13:00,80.3,73.0,29.64,SW,236,5.0,7.0,77,0.00,,,0.01,332,weatherlink.com 1.10,2013-09-01 20:13:00,
2013-09-01 16:28:00,80.0,72.0,29.64,WSW,250,0.0,8.0,76,0.00,,,0.01,239,weatherlink.com 1.10,2013-09-01 20:28:00,
2013-09-01 16:43:00,79.9,72.0,29.65,SW,234,4.0,8.0,77,0.00,,,0.01,313,weatherlink.com 1.10,2013-09-01 20:43:00,
2013-09-01 16:58:00,80.7,72.0,29.65,WSW,249,2.0,8.0,75,0.00,,,0.01,336,weatherlink.com 1.10,2013-09-01 20:58:00,
2013-09-01 17:13:00,81.2,73.0,29.64,WSW,241,6.0,9.0,75,0.00,,,0.01,199,weatherlink.com 1.10,2013-09-01 21:13:00,
2013-09-01 17:28:00,80.9,73.0,29.64,WSW,244,1.0,8.0,76,0.00,,,0.01,494,weatherlink.com 1.10,2013-09-01 21:28:00,
2013-09-01 17:43:00,81.0,73.0,29.64,SW,218,6.0,7.0,76,0.00,,,0.01,381,weatherlink.com 1.10,2013-09-01 21:43:00,
2013-09-01 17:58:00,81.4,73.0,29.64,SSW,197,7.0,10.0,75,0.00,,,0.01,367,weatherlink.com 1.10,2013-09-01 21:58:00,
2013-09-01 18:13:00,81.2,73.0,29.64,SW,215,10.0,10.0,76,0.00,,,0.01,374,weatherlink.com 1.10,2013-09-01 22:13:00,
2013-09-01 18:28:00,80.4,73.0,29.65,SW,235,8.0,9.0,77,0.00,,,0.01,156,weatherlink.com 1.10,2013-09-01 22:28:00,
2013-09-01 18:43:00,80.5,73.0,29.65,SW,236,5.0,7.0,78,0.00,,,0.01,193,weatherlink.com 1.10,2013-09-01 22:43:00,
2013-09-01 18:58:00,79.7,73.0,29.64,WSW,244,3.0,9.0,79,0.00,,,0.01,132,weatherlink.com 1.10,2013-09-01 22:58:00,
2013-09-01 19:13:00,79.2,72.0,29.65,WSW,247,5.0,10.0,79,0.00,,,0.01,105,weatherlink.com 1.10,2013-09-01 23:13:00,
2013-09-01 19:28:00,78.2,72.0,29.66,WSW,245,5.0,12.0,80,0.00,,,0.01,77,weatherlink.com 1.10,2013-09-01 23:28:00,
2013-09-01 19:43:00,77.6,72.0,29.66,WSW,247,3.0,8.0,82,0.00,,,0.01,46,weatherlink.com 1.10,2013-09-01 23:43:00,
2013-09-01 19:58:00,77.0,72.0,29.65,WSW,237,6.0,7.0,83,0.00,,,0.01,12,weatherlink.com 1.10,2013-09-01 23:58:00,
2013-09-01 20:13:00,76.3,71.0,29.66,SW,235,5.0,6.0,84,0.00,,,0.01,0,weatherlink.com 1.10,2013-09-02 00:13:00,
2013-09-01 20:28:00,75.5,71.0,29.67,SW,235,3.0,6.0,85,0.00,,,0.01,0,weatherlink.com 1.10,2013-09-02 00:28:00,
2013-09-01 20:43:00,74.9,71.0,29.67,SW,235,2.0,4.0,87,0.00,,,0.01,0,weatherlink.com 1.10,2013-09-02 00:43:00,
2013-09-01 20:58:00,74.3,71.0,29.67,SW,235,0.0,3.0,88,0.00,,,0.01,0,weatherlink.com 1.10,2013-09-02 00:58:00,
2013-09-01 21:13:00,73.7,70.0,29.67,SW,235,1.0,5.0,88,0.00,,,0.01,0,weatherlink.com 1.10,2013-09-02 01:13:00,
2013-09-01 21:28:00,73.3,70.0,29.68,SW,235,2.0,5.0,89,0.00,,,0.01,0,weatherlink.com 1.10,2013-09-02 01:28:00,
2013-09-01 21:43:00,73.0,70.0,29.68,SW,235,0.0,6.0,90,0.00,,,0.01,0,weatherlink.com 1.10,2013-09-02 01:43:00,
2013-09-01 21:58:00,72.6,70.0,29.68,SW,235,0.0,6.0,90,0.00,,,0.01,0,weatherlink.com 1.10,2013-09-02 01:58:00,
2013-09-01 22:13:00,72.4,69.0,29.68,SW,235,2.0,4.0,90,0.00,,,0.01,0,weatherlink.com 1.10,2013-09-02 02:13:00,
2013-09-01 22:28:00,72.1,69.0,29.67,SW,235,2.0,7.0,90,0.00,,,0.01,0,weatherlink.com 1.10,2013-09-02 02:28:00,
2013-09-01 22:43:00,72.0,69.0,29.67,WSW,241,3.0,5.0,90,0.00,,,0.01,0,weatherlink.com 1.10,2013-09-02 02:43:00,
2013-09-01 22:58:00,71.9,69.0,29.67,WSW,239,2.0,7.0,90,0.00,,,0.01,0,weatherlink.com 1.10,2013-09-02 02:58:00,
2013-09-01 23:13:00,71.9,69.0,29.68,WSW,239,1.0,4.0,90,0.00,,,0.01,0,weatherlink.com 1.10,2013-09-02 03:13:00,
2013-09-01 23:28:00,71.6,69.0,29.68,WSW,239,2.0,3.0,90,0.00,,,0.01,0,weatherlink.com 1.10,2013-09-02 03:28:00,
2013-09-01 23:43:00,71.2,69.0,29.68,WSW,239,2.0,6.0,91,0.00,,,0.01,0,weatherlink.com 1.10,2013-09-02 03:43:00,
2013-09-01 23:58:00,71.1,68.0,29.66,SW,227,1.0,8.0,91,0.00,,,0.01,0,weatherlink.com 1.10,2013-09-02 03:58:00,